Location: Saint-Palais-sur-Mer
(45.6429°N, 1.0859°W)
Time: 04:07:17
(UTC+01:00)

Tiros 1 - Pass Details

Date: 08 February 2026
Orbit: 618 x 650 km, 48.4° (Epoch: 16 March)

Event Time Altitude Azimuth Distance (km) Brightness Sun altitude
Rises 19:18:36 0° 288° (WNW) 2,891 11.7 -10.5°
Reaches altitude 10° 19:21:05 10° 279° (W) 1,985 11.0 -11.0°
Maximum altitude 19:25:07 32° 216° (SW) 1,075 8.8 -11.7°
Drops below altitude 10° 19:29:11 10° 154° (SSE) 1,989 9.5 -12.4°
Sets 19:31:40 0° 144° (SE) 2,898 10.2 -12.8°
